Content
SEND FEEDBACK

Daily
Averages
Monthly
Summary
United States of America

BECKLEY, WEST VIRGINIA


Home > North America > United States > West Virginia
Elevation: 2414 feet     Latitude: 37 47N     Longitude: 081 07W

WEATHER
 
SELECT A DAY
Number of Records: 240,785;   Date Range: 1/1/95 - 7/7/14
 
SHARE

PRINT THIS DATA

[ ← Previous Day ]
WEATHER ALMANAC - JANUARY 23, 2013
[ Next Day → ]
[ °C ]   °F
Weather ElementAverageHighLow
Temperature16.7 °F26.1 °F (11:51 pm)9 °F (4:51 am)
Dewpoint2 °F12.9 °F (11:51 pm)-6 °F (11:51 am)
Humidity53.6 %65 % (4:51 pm)33 % (11:51 am)
Barometer30.25 in30.38 in (8:51 am)29.97 in (8:51 pm)
Wind Speed7.8 mph17.3 mph (12:51 pm)
Wind Gust23 mph (12:51 pm)
Weather ElementAverage
Visibility9.8 mi
Wind DirectionWSW (243.9 °)

Weather ElementTotal
Precipitation---
Heating Degree Days47.5 (Base 65)
Averaged from 23 records on January 23, 2013
WEATHER CONDITIONS BREAKOUT
WIND DIRECTION BREAKOUT
WEATHER BY HOUR - JANUARY 23, 2013
[ °C ]   °F
Local TimeTemperatureDewpointHumidityBarometerVisibilityWind DirectionWind SpeedGust SpeedPrecipitationEventsConditions
1:51 AM12.0 °F-4.0 °F49 %30.33 in10.0 miWNW (300°)10.4 mphOvercast
2:51 AM10.9 °F-5.1 °F49 %30.34 in10.0 miWNW (300°)11.5 mphScattered Clouds
3:51 AM10.0 °F-4.0 °F53 %30.34 in10.0 miWNW (300°)9.2 mphScattered Clouds
4:51 AM9.0 °F-2.9 °F59 %30.34 in10.0 miWNW (290°)6.9 mphClear
5:51 AM9.0 °F-4.0 °F56 %30.35 in10.0 miWNW (290°)8.1 mphClear
6:51 AM9.0 °F-4.0 °F56 %30.36 in10.0 miWNW (290°)5.8 mphClear
7:51 AM9.0 °F-2.9 °F59 %30.37 in10.0 miWSW (250°)3.5 mphClear
8:51 AM10.9 °F-2.0 °F56 %30.38 in10.0 miWest (270°)9.2 mphClear
9:51 AM14.0 °F-2.9 °F47 %30.38 in10.0 miWest (280°)11.5 mph18.4 mphClear
10:51 AM17.1 °F-4.0 °F39 %30.37 in10.0 miWSW (240°)10.4 mph18.4 mphMostly Cloudy
11:51 AM19.0 °F-6.0 °F33 %30.34 in10.0 miWest (280°)16.1 mph21.9 mphOvercast
12:51 PM19.4 °F-5.8 °F33 %30.13 in10.0 miWest (270°)17.3 mph23.0 mphOvercast
1:51 PM21.0 °F-2.0 °F36 %30.27 in10.0 miWest (270°)9.2 mph17.3 mphOvercast
2:51 PM19.9 °F6.1 °F55 %30.27 in7.0 miWest (260°)11.5 mph0.00 inSnowLight Snow
3:51 PM19.0 °F8.1 °F62 %30.26 in9.0 miWSW (250°)9.2 mph0.00 inSnowLight Snow
4:51 PM19.0 °F9.0 °F65 %30.25 in10.0 miWSW (250°)5.8 mph0.00 inOvercast
5:51 PM19.9 °F9.0 °F62 %30.21 in10.0 miWSW (240°)3.5 mphOvercast
6:51 PM19.9 °F9.0 °F62 %30.19 in10.0 miCalmOvercast
7:51 PM21.0 °F9.0 °F60 %30.17 in10.0 miCalmOvercast
8:51 PM21.2 °F10.4 °F63 %29.97 in10.0 miSSW (210°)6.9 mphOvercast
9:51 PM23.0 °F10.9 °F60 %30.10 in10.0 miWSW (240°)3.5 mphOvercast
10:51 PM24.1 °F12.0 °F60 %30.08 in10.0 miWSW (250°)3.5 mphOvercast
11:51 PM26.1 °F12.9 °F58 %30.06 in10.0 miWest (280°)6.9 mphOvercast
Hourly data recorded from KBKW, located miles away from Beckley, West Virginia







STORIES FROM OUR PARTNERS